Wind_Speed
5 4 6 6 5 8 7 6 7 7 8 9 6 6 10 13 14 13 16 17 22 23 22 21 23 22 21 23 25 28 29 28 28 27 23 15 18 14 12 10 5 6 11 16
4 1 0 3 7 8 5 3 5 5 6 7 2 3 5 4 3 3 3 4 9 15 17 20 22 21 20 19 19 18 21 24 23 21 16 15 13 11 7 7 11 16 25 19
4 2 4 5 8 9 7 6 8 8 11 6 3 3 3 6 8 10 11 10 6 2 4 9 12 13 15 16 17 18 18 19 18 14 12 9 9 10 11 11 22 16 14 15
4 2 1 7 1 4 8 5 5 4 2 4 9 10 9 8 9 11 10 9 8 6 4 2 5 9 12 15 17 16 16 14 14 13 13 14 7 7 18 26 15 16 18 20
5 4 4 4 4 7 8 9 7 6 7 13 18 11 8 8 9 10 9 9 7 5 2 3 6 9 11 12 13 16 19 18 16 13 8 10 16 21 12 13 16 18 21 23
3 5 8 8 4 7 4 6 7 11 10 12 13 4 3 7 9 10 9 7 6 5 5 5 8 8 11 15 19 19 17 12 7 10 17 16 8 11 14 18 20 21 23 23
2 3 7 7 3 10 5 8 13 25 26 22 5 4 15 13 12 10 9 9 9 10 10 11 12 12 17 19 17 12 5 8 13 8 6 9 12 15 17 18 21 23 26 27
3 2 6 11 5 9 8 4 21 24 27 22 11 14 18 15 13 12 12 14 14 16 19 19 16 13 16 11 4 6 5 2 2 5 7 10 12 14 17 20 24 28 32 36
9 7 3 20 5 16 7 9 21 27 25 22 19 20 20 18 16 16 18 20 20 20 23 19 15 10 6 3 2 1 2 4 6 8 11 14 18 21 24 27 30 34 36 39
2 4 5 11 15 11 15 18 24 25 25 23 22 23 22 21 23 23 23 22 19 18 17 13 8 4 3 2 2 3 5 7 10 13 17 20 23 26 29 30 32 34 36 38
3 5 8 12 14 15 16 18 22 22 23 22 20 23 23 25 26 25 23 20 17 14 9 7 5 4 3 1 3 6 8 12 16 19 22 26 28 30 32 31 30 31 32 34
8 15 11 10 21 22 23 24 23 24 23 21 21 24 26 27 26 24 21 18 13 9 6 9 6 2 1 4 7 11 14 17 21 24 27 29 32 34 32 32 31 29 27 27
3 11 14 16 27 26 26 23 21 20 20 24 22 24 28 29 25 22 19 16 14 10 9 7 3 2 5 8 11 15 18 21 23 25 27 29 30 31 36 36 32 30 31 33
11 18 12 25 17 25 25 24 22 20 21 22 26 27 28 28 24 21 19 15 11 9 7 4 3 5 8 11 15 17 20 22 23 24 25 26 26 26 27 29 36 41 37 34
18 7 13 23 26 25 23 24 25 24 25 27 27 29 27 26 24 20 16 12 10 7 4 2 4 7 11 14 17 19 20 21 22 22 23 24 24 24 25 26 28 31 36 37
9 13 19 27 27 26 26 27 29 30 30 30 30 27 25 23 20 17 14 11 7 5 2 4 8 11 14 16 17 18 19 20 21 22 22 22 23 24 25 25 26 28 31 33
23 17 21 24 26 26 27 28 29 33 32 31 28 26 23 20 18 15 12 9 6 3 4 7 11 13 15 17 18 18 19 19 20 21 21 22 22 23 24 25 26 27 28 29
9 17 22 26 34 32 28 26 27 28 30 28 27 23 20 16 13 12 9 6 3 5 7 10 12 15 16 16 17 18 19 20 21 22 22 21 22 23 24 25 25 27 29 29
7 18 20 23 25 26 27 26 27 26 26 25 23 20 15 12 10 8 5 3 4 7 9 12 14 15 16 17 17 18 20 20 20 21 21 22 22 22 23 24 26 27 28 29
21 20 20 22 22 23 28 27 26 24 23 20 17 15 14 11 8 5 3 4 6 9 11 13 15 16 17 17 19 19 20 21 21 21 21 21 22 23 23 23 25 26 27 27
21 19 18 22 26 27 26 23 22 22 18 15 14 13 11 8 6 4 4 6 9 11 13 15 16 17 17 18 19 20 20 20 20 21 21 22 22 22 23 24 25 26 27 27
20 22 25 27 27 25 20 20 16 16 18 16 13 10 7 6 4 4 6 8 10 12 15 16 17 18 18 18 19 20 20 20 20 21 21 21 23 24 25 25 26 27 28 28
23 25 26 24 22 21 19 17 15 13 13 11 9 7 5 4 5 6 8 9 11 14 16 17 19 19 19 18 18 20 20 20 20 20 21 22 23 24 25 26 27 27 28 28
24 21 21 18 17 19 18 16 14 12 10 9 7 4 3 5 7 8 10 11 13 15 17 19 19 19 19 19 19 20 20 19 20 20 21 22 23 23 24 25 26 27 27 27
18 18 17 18 16 14 12 12 11 9 7 5 4 5 6 8 9 11 12 14 15 16 18 20 20 19 19 20 20 19 19 19 20 21 21 22 23 23 24 25 26 27 27 27
16 17 16 13 11 10 9 8 6 5 3 4 6 8 9 10 12 13 14 15 16 17 19 20 19 18 18 20 20 20 20 20 20 20 21 22 23 23 24 25 25 25 25 25
15 13 11 9 8 7 7 6 5 5 6 8 10 11 12 13 14 15 16 17 18 19 20 20 19 18 18 19 20 21 21 21 20 20 21 22 22 23 24 24 24 24 23 22
Wind_Direction
223 196 181 206 203 169 193 190 172 238 196 255 266 277 282 281 282 263 249 241 240 240 239 240 241 242 249 244 241 242 244 233 220 205 201 243 227 210 208 247 259 204 267 275
191 29 88 213 228 186 199 180 250 239 252 226 257 288 337 322 178 110 90 262 254 250 249 248 251 252 251 247 246 242 228 217 206 209 228 211 220 231 230 195 232 288 272 270
226 29 91 328 227 209 208 193 173 197 219 165 156 120 57 59 102 93 85 85 92 128 232 244 250 252 248 242 229 217 213 201 207 206 205 189 175 188 198 291 303 293 288 284
169 57 168 243 306 286 228 239 221 279 201 179 143 119 99 98 99 94 86 83 86 88 97 155 222 224 219 207 203 199 193 183 175 170 164 162 197 267 291 294 296 290 290 287
143 189 290 287 203 175 184 261 194 181 152 145 142 117 70 94 106 104 104 97 85 76 97 178 194 196 194 182 179 176 163 160 159 158 180 240 273 295 303 295 291 290 289 290
149 154 206 230 241 163 106 276 194 162 169 163 164 135 205 147 124 114 109 107 112 119 135 144 148 159 167 156 156 154 149 153 185 249 298 305 303 293 294 295 296 295 297 299
132 199 285 248 191 140 129 241 178 181 175 171 172 170 152 154 141 130 124 124 126 124 125 124 132 149 145 144 144 148 173 259 301 308 303 299 298 302 304 304 304 304 303 302
92 76 268 171 115 167 212 184 183 183 180 176 160 148 151 152 145 141 138 133 131 129 120 120 129 141 133 138 153 261 292 332 316 304 305 304 304 304 303 304 303 302 302 301
182 209 224 185 202 215 227 191 183 181 184 192 170 162 162 154 150 145 140 137 135 133 131 132 135 138 158 166 166 267 270 285 297 300 302 304 305 305 306 306 305 305 306 305
82 229 223 227 227 226 201 196 182 182 181 184 176 170 164 158 152 147 144 141 141 142 135 127 133 147 146 190 243 280 303 309 309 308 307 307 307 309 309 311 310 310 311 312
232 229 288 246 220 209 190 183 176 173 178 180 179 170 169 160 155 152 149 148 149 144 146 139 138 169 165 215 297 308 312 312 313 314 315 316 315 317 317 318 320 319 317 315
229 196 190 208 193 180 174 172 176 177 171 178 184 174 169 160 158 157 156 154 156 148 132 143 163 181 284 309 313 317 319 320 321 322 321 321 321 320 321 321 323 324 327 327
230 207 201 179 173 173 171 171 173 180 181 175 173 173 166 158 158 158 154 151 145 149 159 163 181 267 308 318 324 325 325 324 324 325 326 327 328 328 326 326 330 330 330 328
218 169 139 167 170 171 173 166 166 167 166 168 165 166 163 156 155 156 153 150 157 164 166 183 245 299 319 324 325 326 327 327 329 331 332 332 334 335 333 330 328 327 331 334
167 228 212 173 164 164 166 162 157 155 157 156 160 161 162 157 156 154 152 162 163 167 186 237 299 315 322 326 328 330 331 332 335 336 336 338 337 335 334 333 334 331 331 332
129 135 150 156 160 159 162 161 158 153 156 155 158 158 158 157 154 159 162 163 175 193 227 302 318 325 329 329 330 333 335 336 336 337 336 336 337 338 337 336 335 333 334 335
134 128 143 156 162 162 167 166 165 160 157 156 156 155 156 157 159 162 165 170 187 235 303 319 325 328 329 330 333 334 336 335 333 333 333 334 335 334 334 332 332 331 333 335
261 213 181 179 170 165 160 161 157 158 155 154 152 155 162 165 167 167 172 181 238 302 316 321 324 327 330 332 332 332 331 331 331 330 330 331 330 329 327 327 327 328 330 333
176 164 155 156 162 162 159 158 156 157 153 155 158 157 160 165 170 172 183 231 294 307 316 321 326 329 329 329 329 327 328 329 328 327 328 328 325 326 326 327 327 329 331 331
147 150 151 155 163 167 155 152 156 160 158 153 153 165 168 169 175 191 224 272 294 307 318 324 326 327 326 326 328 327 328 328 327 326 327 326 326 327 329 329 330 331 332 332
147 153 160 158 153 155 159 160 159 152 148 162 170 169 174 180 191 224 268 290 308 315 321 325 325 324 324 323 324 324 326 326 325 325 326 325 325 328 329 330 331 332 332 332
160 155 151 152 152 150 149 154 163 169 166 167 172 181 187 199 222 262 287 298 308 315 320 321 321 319 320 322 324 325 326 325 324 325 325 325 327 328 330 331 332 332 331 331
150 148 143 143 143 144 152 159 162 168 169 172 180 189 204 230 257 283 297 306 309 314 318 318 318 319 319 321 323 322 322 322 323 324 325 325 326 328 329 330 332 330 329 329
137 138 138 141 150 154 159 159 165 167 177 180 190 209 245 277 292 302 305 305 308 311 314 316 316 315 314 316 319 320 319 320 322 322 322 323 325 326 326 328 330 330 329 328
131 132 139 149 156 159 168 176 180 181 186 199 232 272 299 306 306 306 302 302 304 308 312 315 315 311 310 313 317 319 320 320 319 318 319 321 323 325 326 328 329 329 329 329
141 148 154 162 166 169 177 182 190 194 230 278 299 307 309 306 303 300 298 300 304 309 313 316 315 310 308 310 315 319 319 318 317 317 319 320 322 324 325 327 329 329 329 331
141 147 154 156 152 161 174 192 223 252 276 291 299 305 308 306 301 299 301 303 306 309 314 316 317 313 310 310 312 314 316 316 317 317 319 319 321 322 324 327 328 329 331 333
Height
1462 1460 1463 1465 1465 1474 1476 1474 1482 1475 1480 1468 1462 1461 1458 1456 1455 1456 1457 1457 1459 1462 1464 1468 1469 1473 1476 1478 1480 1482 1484 1487 1491 1497 1499 1501 1507 1508 1507 1508 1509 1512 1515 1513
1462 1462 1462 1463 1462 1466 1465 1466 1470 1469 1471 1459 1458 1458 1457 1456 1454 1455 1455 1456 1458 1460 1464 1466 1468 1470 1472 1475 1478 1481 1484 1487 1493 1497 1499 1501 1505 1504 1507 1508 1512 1507 1506 1507
1470 1470 1467 1481 1466 1461 1456 1455 1456 1468 1458 1455 1457 1458 1458 1457 1456 1456 1456 1457 1458 1460 1462 1464 1467 1470 1472 1475 1478 1481 1485 1490 1493 1495 1499 1503 1503 1505 1507 1507 1507 1505 1505 1503
1481 1482 1491 1454 1450 1452 1453 1449 1449 1451 1451 1452 1454 1457 1458 1457 1458 1457 1458 1460 1461 1462 1463 1465 1467 1470 1473 1476 1479 1482 1486 1490 1493 1496 1499 1501 1502 1503 1503 1502 1501 1502 1501 1500
1477 1480 1465 1450 1451 1452 1453 1450 1444 1447 1450 1452 1454 1456 1459 1458 1458 1459 1460 1462 1462 1464 1465 1466 1469 1471 1474 1478 1482 1485 1488 1491 1494 1498 1499 1500 1501 1501 1499 1499 1499 1497 1496 1494
1482 1477 1478 1452 1438 1438 1441 1456 1439 1441 1446 1448 1453 1461 1459 1459 1459 1460 1462 1463 1464 1466 1467 1470 1472 1475 1478 1481 1485 1488 1492 1494 1496 1497 1498 1498 1498 1497 1497 1495 1494 1492 1490 1488
1484 1475 1460 1437 1436 1437 1458 1448 1429 1434 1438 1444 1449 1450 1452 1457 1459 1461 1463 1464 1466 1468 1470 1473 1476 1479 1481 1485 1489 1491 1493 1495 1495 1495 1496 1495 1495 1494 1492 1491 1488 1486 1484 1482
1474 1474 1456 1429 1436 1443 1430 1424 1427 1432 1437 1442 1445 1448 1451 1455 1458 1461 1463 1465 1468 1469 1473 1477 1481 1483 1485 1488 1490 1492 1493 1493 1493 1493 1493 1492 1491 1489 1488 1485 1482 1480 1476 1472
1438 1436 1422 1421 1421 1422 1423 1422 1425 1428 1435 1440 1443 1447 1451 1453 1457 1461 1464 1467 1470 1472 1475 1479 1481 1484 1486 1487 1490 1490 1490 1491 1491 1491 1490 1488 1487 1484 1482 1480 1476 1472 1468 1463
1429 1422 1419 1419 1419 1420 1420 1421 1424 1426 1432 1438 1441 1446 1450 1454 1457 1461 1465 1468 1472 1474 1477 1480 1483 1484 1486 1487 1488 1489 1488 1488 1488 1487 1486 1484 1482 1479 1476 1473 1469 1465 1460 1454
1423 1418 1423 1416 1414 1416 1418 1423 1426 1428 1431 1437 1442 1447 1451 1455 1459 1463 1466 1469 1473 1475 1478 1480 1482 1484 1485 1486 1486 1486 1486 1485 1484 1482 1480 1477 1475 1472 1468 1466 1462 1457 1453 1448
1408 1399 1404 1403 1408 1413 1417 1421 1426 1428 1430 1437 1441 1444 1450 1456 1460 1463 1467 1470 1473 1475 1478 1480 1483 1484 1484 1484 1484 1483 1482 1480 1478 1476 1473 1470 1466 1463 1462 1458 1455 1451 1448 1444
1395 1397 1400 1402 1405 1409 1415 1421 1425 1430 1433 1434 1442 1446 1451 1455 1461 1465 1468 1471 1474 1476 1478 1480 1481 1482 1482 1482 1481 1479 1478 1476 1474 1471 1467 1464 1460 1456 1450 1447 1447 1444 1441 1436
1395 1398 1404 1404 1404 1410 1414 1418 1423 1429 1433 1437 1441 1448 1452 1457 1462 1467 1470 1473 1475 1477 1478 1479 1480 1480 1480 1479 1478 1476 1474 1472 1469 1466 1463 1460 1456 1453 1449 1444 1437 1431 1431 1428
1395 1398 1398 1400 1406 1411 1415 1419 1423 1429 1433 1438 1444 1448 1454 1458 1463 1468 1472 1474 1476 1477 1478 1478 1479 1479 1478 1476 1474 1472 1470 1467 1465 1462 1459 1456 1453 1449 1446 1442 1438 1432 1426 1421
1401 1402 1402 1401 1409 1413 1416 1421 1422 1427 1434 1439 1445 1451 1456 1460 1465 1469 1472 1474 1476 1477 1477 1477 1477 1476 1474 1473 1470 1469 1466 1464 1461 1458 1455 1452 1449 1445 1442 1439 1435 1431 1425 1420
1396 1405 1405 1411 1414 1417 1420 1423 1423 1426 1432 1439 1446 1452 1458 1463 1466 1469 1472 1474 1475 1475 1475 1475 1474 1473 1471 1469 1467 1465 1462 1460 1458 1455 1452 1449 1446 1442 1438 1435 1431 1427 1423 1418
1399 1403 1404 1401 1406 1414 1421 1428 1432 1437 1437 1441 1447 1454 1459 1463 1466 1469 1471 1473 1473 1474 1473 1473 1471 1469 1467 1465 1463 1461 1459 1457 1454 1451 1448 1445 1442 1439 1435 1431 1427 1423 1418 1414
1402 1405 1406 1409 1414 1419 1425 1429 1431 1441 1446 1447 1450 1455 1460 1464 1467 1469 1470 1471 1472 1471 1471 1469 1468 1466 1464 1462 1460 1458 1455 1453 1450 1447 1444 1441 1438 1435 1431 1427 1423 1418 1413 1408
1404 1407 1410 1412 1418 1423 1427 1435 1441 1446 1448 1450 1454 1458 1461 1464 1466 1468 1469 1469 1469 1469 1468 1466 1464 1462 1460 1458 1456 1453 1451 1448 1446 1443 1440 1436 1433 1430 1426 1422 1418 1414 1409 1405
1408 1410 1413 1416 1421 1429 1434 1439 1444 1447 1450 1453 1456 1459 1461 1463 1465 1466 1466 1466 1466 1465 1464 1462 1460 1458 1456 1454 1451 1449 1446 1444 1441 1438 1435 1432 1428 1425 1422 1418 1414 1409 1405 1400
1411 1413 1417 1422 1427 1434 1440 1444 1447 1448 1451 1454 1457 1459 1461 1462 1463 1463 1463 1464 1462 1461 1460 1458 1456 1454 1452 1450 1447 1444 1442 1439 1436 1433 1430 1427 1424 1420 1417 1413 1409 1405 1401 1396
1416 1420 1424 1429 1433 1438 1442 1446 1449 1451 1453 1456 1457 1459 1460 1461 1461 1461 1461 1460 1459 1458 1456 1454 1452 1449 1447 1445 1442 1440 1437 1434 1432 1429 1426 1423 1419 1416 1412 1408 1404 1400 1396 1392
1423 1427 1430 1434 1438 1441 1444 1448 1450 1453 1455 1456 1458 1459 1459 1459 1459 1458 1458 1457 1455 1454 1452 1450 1448 1445 1443 1440 1438 1435 1432 1430 1427 1424 1421 1419 1415 1412 1408 1404 1400 1396 1392 1387
1429 1432 1436 1439 1442 1445 1448 1450 1452 1454 1455 1457 1457 1458 1458 1457 1457 1456 1455 1453 1452 1450 1448 1446 1443 1440 1438 1435 1433 1431 1428 1425 1422 1420 1417 1414 1411 1407 1404 1400 1396 1392 1387 1383
1434 1437 1440 1443 1445 1448 1450 1452 1453 1454 1455 1456 1456 1456 1455 1455 1454 1453 1452 1450 1448 1446 1444 1441 1438 1435 1433 1431 1428 1426 1423 1421 1418 1415 1412 1409 1406 1403 1399 1395 1392 1388 1383 1379
1439 1442 1444 1447 1449 1450 1452 1453 1454 1454 1454 1454 1454 1454 1453 1452 1450 1449 1447 1445 1444 1441 1439 1436 1433 1431 1428 1426 1424 1421 1419 1416 1413 1411 1408 1405 1401 1398 1395 1391 1387 1383 1379 1375